Regional Weather Roundup
Issued by NWS Sioux Falls, SD

Home | Current Version | Previous Version | Text Only | Print | Product List | Glossary Off
Versions: 1 2 3 4 5 6 7 8 9 10 11 12 13 14 15 16 17 18 19 20 21 22 23 24 25 26 27 28 29 30 31 32 33 34 35 36 37 38 39 40 41 42 43 44 45 46 47 48 49 50

000
ASUS43 KFSD 012310
RWRFSD

WEATHER ROUNDUP FOR SE SOUTH DAKOTA/SW MINNESOTA/NW IOWA
NATIONAL WEATHER SERVICE SIOUX FALLS SD
600 PM CDT WED OCT 01 2014

NOTE: "FAIR" INDICATES FEW OR NO CLOUDS BELOW 12,000 FEET WITH NO
SIGNIFICANT WEATHER AND OR OBSTRUCTIONS TO VISIBILITY.


SDZ038>040-050-052>070-020000-
SOUTHEAST SOUTH DAKOTA

CITY           SKY/WX    TMP DP  RH WIND       PRES   REMARKS
CHAMBERLAIN    CLOUDY    69  48  48 NW13      29.78R
HURON          MOSUNNY   70  49  47 NW12      29.74R
MADISON        FAIR      68  50  52 NW8       29.76R
MITCHELL       MOSUNNY   73  48  41 NW8       29.75R
SIOUX FALLS    PTSUNNY   72  53  51 NW9       29.74R
WINNER         MOCLDY    69  47  45 NW13      29.81R
YANKTON        PTSUNNY   72  54  53 NW6       29.74R
$$

MNZ071-072-080-081-089-090-097-098-020000-
SOUTHWEST MINNESOTA

CITY           SKY/WX    TMP DP  RH WIND       PRES   REMARKS
FAIRMONT       CLEAR     70  57  64 SE5       29.75S
JACKSON        SUNNY     70  55  60 S3        29.76R
LUVERNE        MOSUNNY   75  52  43 W9        29.74R
MARSHALL       CLOUDY    72  59  64 E3        29.71R
MONTEVIDEO     MOSUNNY   70  61  73 S6        29.73R
PIPESTONE      MOSUNNY   70  57  64 NW5       29.74S
REDWOOD FALLS  LGT RAIN  66  58  75 E5        29.74R
TRACY          MOSUNNY   71  56  59 SW6       29.72S
WINDOM         MOSUNNY   70  57  64 S5        29.74R
WORTHINGTON    CLOUDY    68  61  77 S6        29.74R
$$

IAZ001>003-012>014-020>022-031-032-NEZ013-014-SDZ071-020000-
NORTHWEST IOWA

CITY           SKY/WX    TMP DP  RH WIND       PRES   REMARKS
CHEROKEE       PTSUNNY   74  60  61 S6        29.73S
DENISON        PTSUNNY   73  63  68 CALM      29.72S
ESTHERVILLE    CLEAR     69  58  67 S7        29.75R
LE MARS        PTSUNNY   73  61  64 SE3       29.73S
ORANGE CITY    PTSUNNY   75  55  50 W7        29.74R
SHELDON        MOSUNNY   73  59  60 SW5       29.72S
SIOUX CITY     PTSUNNY   74  63  68 CALM      29.72S
SPENCER        MOSUNNY   71  60  68 SE8       29.75R
STORM LAKE     PTSUNNY   73  59  60 SW3       29.76R
$$

ABBREVIATIONS USED IN REMARKS
   TC - TEMPERATURE IN CELSIUS
  WCI - WIND CHILL INDEX
   HX - HEAT INDEX
  VSB - VISIBILITY




USA.gov is the U.S. government's official web portal to all federal, state and local government web resources and services.